Time,TemperatureF,DewpointF,PressureIn,WindDirection,WindDirectionDegrees,WindSpeedMPH,WindSpeedGustMPH,Humidity,HourlyPrecipIn,Conditions,Clouds,dailyrainin,SoftwareType,DateUTC
2013-02-27 00:14:00,46.4,46.0,29.59,ENE,65,0.0,-999.0,100,-99.99,,,0.00,weatherlink.com 1.10,2013-02-27 05:14:00,
2013-02-27 00:29:00,46.5,47.0,29.59,ENE,62,2.0,-999.0,100,-99.99,,,0.00,weatherlink.com 1.10,2013-02-27 05:29:00,
2013-02-27 00:44:00,46.7,47.0,29.59,NE,40,0.0,-999.0,100,-99.99,,,0.00,weatherlink.com 1.10,2013-02-27 05:44:00,
2013-02-27 00:59:00,46.5,47.0,29.58,NNE,27,2.0,-999.0,100,-99.99,,,0.01,weatherlink.com 1.10,2013-02-27 05:59:00,
2013-02-27 01:14:00,46.5,47.0,29.57,North,359,4.0,-999.0,100,-99.99,,,0.01,weatherlink.com 1.10,2013-02-27 06:14:00,
2013-02-27 01:29:00,46.4,46.0,29.56,ENE,65,4.0,-999.0,100,-99.99,,,0.01,weatherlink.com 1.10,2013-02-27 06:29:00,
2013-02-27 01:44:00,46.5,47.0,29.55,NE,36,4.0,-999.0,100,-99.99,,,0.01,weatherlink.com 1.10,2013-02-27 06:44:00,
2013-02-27 01:59:00,46.7,47.0,29.54,NE,54,0.0,-999.0,100,-99.99,,,0.01,weatherlink.com 1.10,2013-02-27 06:59:00,
2013-02-27 02:14:00,46.7,47.0,29.53,NE,44,1.0,-999.0,100,-99.99,,,0.01,weatherlink.com 1.10,2013-02-27 07:14:00,
2013-02-27 02:29:00,46.8,47.0,29.52,ENE,63,3.0,-999.0,100,-99.99,,,0.01,weatherlink.com 1.10,2013-02-27 07:29:00,
2013-02-27 02:44:00,46.8,47.0,29.51,NNE,28,0.0,-999.0,100,-99.99,,,0.01,weatherlink.com 1.10,2013-02-27 07:44:00,
2013-02-27 02:59:00,46.7,47.0,29.50,NE,37,0.0,-999.0,100,-99.99,,,0.01,weatherlink.com 1.10,2013-02-27 07:59:00,
2013-02-27 03:14:00,46.2,46.0,29.50,NE,39,0.0,-999.0,100,-99.99,,,0.01,weatherlink.com 1.10,2013-02-27 08:14:00,
2013-02-27 03:29:00,46.0,46.0,29.49,NE,39,0.0,-999.0,100,-99.99,,,0.01,weatherlink.com 1.10,2013-02-27 08:29:00,
2013-02-27 03:44:00,46.1,46.0,29.49,North,0,0.0,-999.0,100,-99.99,,,0.01,weatherlink.com 1.10,2013-02-27 08:44:00,
2013-02-27 03:59:00,46.0,46.0,29.49,North,0,0.0,-999.0,100,-99.99,,,0.01,weatherlink.com 1.10,2013-02-27 08:59:00,
2013-02-27 04:14:00,45.7,46.0,29.50,North,358,0.0,-999.0,100,-99.99,,,0.01,weatherlink.com 1.10,2013-02-27 09:14:00,
2013-02-27 04:29:00,45.5,46.0,29.50,North,358,0.0,-999.0,100,-99.99,,,0.01,weatherlink.com 1.10,2013-02-27 09:29:00,
2013-02-27 04:44:00,45.4,45.0,29.50,NNW,328,0.0,-999.0,100,-99.99,,,0.01,weatherlink.com 1.10,2013-02-27 09:44:00,
2013-02-27 04:59:00,44.9,45.0,29.50,NW,321,2.0,-999.0,100,-99.99,,,0.01,weatherlink.com 1.10,2013-02-27 09:59:00,
2013-02-27 05:14:00,44.6,45.0,29.50,NW,316,3.0,-999.0,100,-99.99,,,0.01,weatherlink.com 1.10,2013-02-27 10:14:00,
2013-02-27 05:29:00,44.3,44.0,29.50,NW,306,0.0,-999.0,100,-99.99,,,0.01,weatherlink.com 1.10,2013-02-27 10:29:00,
2013-02-27 05:44:00,44.1,44.0,29.50,West,278,1.0,-999.0,100,-99.99,,,0.01,weatherlink.com 1.10,2013-02-27 10:44:00,
2013-02-27 05:59:00,44.1,44.0,29.51,West,280,4.0,-999.0,100,-99.99,,,0.01,weatherlink.com 1.10,2013-02-27 10:59:00,
2013-02-27 06:14:00,44.1,44.0,29.51,NW,314,5.0,-999.0,100,-99.99,,,0.01,weatherlink.com 1.10,2013-02-27 11:14:00,
2013-02-27 06:29:00,44.1,44.0,29.51,WNW,293,3.0,-999.0,100,-99.99,,,0.01,weatherlink.com 1.10,2013-02-27 11:29:00,
2013-02-27 06:44:00,44.1,44.0,29.51,WSW,257,3.0,-999.0,100,-99.99,,,0.01,weatherlink.com 1.10,2013-02-27 11:44:00,
2013-02-27 06:59:00,44.1,44.0,29.52,West,278,3.0,-999.0,100,-99.99,,,0.01,weatherlink.com 1.10,2013-02-27 11:59:00,
2013-02-27 07:14:00,43.5,44.0,29.54,NW,322,7.0,-999.0,100,-99.99,,,0.01,weatherlink.com 1.10,2013-02-27 12:14:00,
2013-02-27 07:29:00,42.3,42.0,29.56,West,281,3.0,-999.0,100,-99.99,,,0.01,weatherlink.com 1.10,2013-02-27 12:29:00,
2013-02-27 07:44:00,41.5,42.0,29.57,WNW,301,5.0,-999.0,100,-99.99,,,0.01,weatherlink.com 1.10,2013-02-27 12:44:00,
2013-02-27 07:59:00,41.2,41.0,29.58,NW,306,1.0,-999.0,100,-99.99,,,0.01,weatherlink.com 1.10,2013-02-27 12:59:00,
2013-02-27 08:14:00,41.2,41.0,29.59,West,266,5.0,-999.0,100,-99.99,,,0.01,weatherlink.com 1.10,2013-02-27 13:14:00,
2013-02-27 08:29:00,41.2,41.0,29.60,WSW,252,0.0,-999.0,100,-99.99,,,0.01,weatherlink.com 1.10,2013-02-27 13:29:00,
2013-02-27 08:44:00,41.6,42.0,29.60,WNW,293,5.0,-999.0,100,-99.99,,,0.01,weatherlink.com 1.10,2013-02-27 13:44:00,
2013-02-27 08:59:00,41.8,42.0,29.61,WNW,287,4.0,-999.0,100,-99.99,,,0.01,weatherlink.com 1.10,2013-02-27 13:59:00,
2013-02-27 09:14:00,41.8,42.0,29.61,West,281,8.0,-999.0,100,-99.99,,,0.01,weatherlink.com 1.10,2013-02-27 14:14:00,
2013-02-27 09:29:00,42.8,43.0,29.61,WSW,241,4.0,-999.0,99,-99.99,,,0.01,weatherlink.com 1.10,2013-02-27 14:29:00,
2013-02-27 09:44:00,43.9,43.0,29.62,West,266,4.0,-999.0,96,-99.99,,,0.01,weatherlink.com 1.10,2013-02-27 14:44:00,
2013-02-27 09:59:00,45.2,43.0,29.62,NW,305,9.0,-999.0,91,-99.99,,,0.01,weatherlink.com 1.10,2013-02-27 14:59:00,
2013-02-27 10:14:00,46.1,42.0,29.62,WNW,282,5.0,-999.0,85,-99.99,,,0.01,weatherlink.com 1.10,2013-02-27 15:14:00,
2013-02-27 10:29:00,46.5,41.0,29.62,WNW,296,7.0,-999.0,82,-99.99,,,0.01,weatherlink.com 1.10,2013-02-27 15:29:00,
2013-02-27 10:44:00,47.3,41.0,29.63,WNW,297,5.0,-999.0,79,-99.99,,,0.01,weatherlink.com 1.10,2013-02-27 15:44:00,
2013-02-27 10:59:00,47.7,41.0,29.63,WNW,289,12.0,-999.0,77,-99.99,,,0.02,weatherlink.com 1.10,2013-02-27 15:59:00,
2013-02-27 11:14:00,48.8,41.0,29.63,NNW,330,5.0,-999.0,75,-99.99,,,0.02,weatherlink.com 1.10,2013-02-27 16:14:00,
2013-02-27 11:29:00,48.8,40.0,29.63,West,260,6.0,-999.0,72,-99.99,,,0.02,weatherlink.com 1.10,2013-02-27 16:29:00,
2013-02-27 11:44:00,49.2,40.0,29.64,WNW,299,4.0,-999.0,70,-99.99,,,0.02,weatherlink.com 1.10,2013-02-27 16:44:00,
2013-02-27 11:59:00,50.2,40.0,29.64,West,277,7.0,-999.0,69,-99.99,,,0.02,weatherlink.com 1.10,2013-02-27 16:59:00,
2013-02-27 12:14:00,50.8,39.0,29.63,West,271,4.0,-999.0,65,-99.99,,,0.02,weatherlink.com 1.10,2013-02-27 17:14:00,
2013-02-27 12:29:00,51.6,40.0,29.63,West,260,6.0,-999.0,64,-99.99,,,0.02,weatherlink.com 1.10,2013-02-27 17:29:00,
2013-02-27 12:44:00,51.9,39.0,29.63,West,271,11.0,-999.0,62,-99.99,,,0.02,weatherlink.com 1.10,2013-02-27 17:44:00,
2013-02-27 13:00:00,53.8,40.0,29.62,WNW,288,9.0,-999.0,60,-99.99,,,0.02,weatherlink.com 1.10,2013-02-27 18:00:00,
2013-02-27 13:15:00,53.6,38.0,29.62,NW,307,14.0,-999.0,57,-99.99,,,0.02,weatherlink.com 1.10,2013-02-27 18:15:00,
2013-02-27 13:30:00,53.5,39.0,29.62,WSW,250,5.0,-999.0,58,-99.99,,,0.02,weatherlink.com 1.10,2013-02-27 18:30:00,
2013-02-27 13:45:00,54.1,40.0,29.62,SSW,210,0.0,-999.0,60,-99.99,,,0.02,weatherlink.com 1.10,2013-02-27 18:45:00,
2013-02-27 14:00:00,53.5,39.0,29.62,WNW,300,9.0,-999.0,58,-99.99,,,0.02,weatherlink.com 1.10,2013-02-27 19:00:00,
2013-02-27 14:15:00,53.6,40.0,29.62,NNW,330,4.0,-999.0,60,-99.99,,,0.02,weatherlink.com 1.10,2013-02-27 19:15:00,
2013-02-27 14:30:00,53.9,39.0,29.62,WSW,243,0.0,-999.0,58,-99.99,,,0.02,weatherlink.com 1.10,2013-02-27 19:30:00,
2013-02-27 14:45:00,54.2,39.0,29.62,WSW,243,3.0,-999.0,58,-99.99,,,0.02,weatherlink.com 1.10,2013-02-27 19:45:00,
2013-02-27 15:00:00,55.0,40.0,29.62,WNW,285,1.0,-999.0,58,-99.99,,,0.02,weatherlink.com 1.10,2013-02-27 20:00:00,
2013-02-27 15:15:00,54.7,40.0,29.62,West,268,4.0,-999.0,57,-99.99,,,0.02,weatherlink.com 1.10,2013-02-27 20:15:00,
2013-02-27 15:30:00,55.1,40.0,29.62,WSW,239,1.0,-999.0,58,-99.99,,,0.02,weatherlink.com 1.10,2013-02-27 20:30:00,
2013-02-27 15:45:00,54.7,39.0,29.62,WNW,282,0.0,-999.0,56,-99.99,,,0.02,weatherlink.com 1.10,2013-02-27 20:45:00,
2013-02-27 16:00:00,54.7,40.0,29.62,WSW,253,1.0,-999.0,57,-99.99,,,0.02,weatherlink.com 1.10,2013-02-27 21:00:00,
2013-02-27 16:15:00,54.7,40.0,29.62,WSW,253,0.0,-999.0,57,-99.99,,,0.02,weatherlink.com 1.10,2013-02-27 21:15:00,
2013-02-27 16:30:00,54.7,40.0,29.62,WSW,257,0.0,-999.0,57,-99.99,,,0.02,weatherlink.com 1.10,2013-02-27 21:30:00,
2013-02-27 16:45:00,54.2,39.0,29.62,WSW,257,0.0,-999.0,58,-99.99,,,0.02,weatherlink.com 1.10,2013-02-27 21:45:00,
2013-02-27 17:00:00,53.9,39.0,29.62,West,265,0.0,-999.0,58,-99.99,,,0.02,weatherlink.com 1.10,2013-02-27 22:00:00,
2013-02-27 17:15:00,53.6,39.0,29.63,West,265,0.0,-999.0,58,-99.99,,,0.02,weatherlink.com 1.10,2013-02-27 22:15:00,
2013-02-27 17:30:00,53.5,38.0,29.64,West,265,0.0,-999.0,57,-99.99,,,0.02,weatherlink.com 1.10,2013-02-27 22:30:00,
2013-02-27 18:00:00,52.8,37.0,29.64,West,265,0.0,-999.0,56,-99.99,,,0.02,weatherlink.com 1.10,2013-02-27 23:00:00,
2013-02-27 18:15:00,52.6,36.0,29.65,North,0,0.0,-999.0,54,-99.99,,,0.02,weatherlink.com 1.10,2013-02-27 23:15:00,
2013-02-27 18:30:00,51.9,35.0,29.66,North,353,1.0,-999.0,53,-99.99,,,0.02,weatherlink.com 1.10,2013-02-27 23:30:00,
2013-02-27 18:45:00,51.3,35.0,29.67,North,8,0.0,-999.0,54,-99.99,,,0.02,weatherlink.com 1.10,2013-02-27 23:45:00,
2013-02-27 19:00:00,51.0,34.0,29.68,NW,323,5.0,-999.0,53,-99.99,,,0.02,weatherlink.com 1.10,2013-02-28 00:00:00,
2013-02-27 19:15:00,50.7,34.0,29.68,WNW,294,0.0,-999.0,54,-99.99,,,0.02,weatherlink.com 1.10,2013-02-28 00:15:00,
2013-02-27 19:30:00,50.2,34.0,29.68,NW,319,2.0,-999.0,54,-99.99,,,0.02,weatherlink.com 1.10,2013-02-28 00:30:00,
2013-02-27 19:45:00,50.1,33.0,29.68,NW,321,0.0,-999.0,53,-99.99,,,0.02,weatherlink.com 1.10,2013-02-28 00:45:00,
2013-02-27 20:00:00,49.6,33.0,29.68,NW,322,1.0,-999.0,54,-99.99,,,0.02,weatherlink.com 1.10,2013-02-28 01:00:00,
2013-02-27 20:15:00,49.4,33.0,29.68,NW,314,0.0,-999.0,54,-99.99,,,0.02,weatherlink.com 1.10,2013-02-28 01:15:00,
2013-02-27 20:30:00,49.2,33.0,29.69,NW,309,0.0,-999.0,55,-99.99,,,0.02,weatherlink.com 1.10,2013-02-28 01:30:00,
2013-02-27 20:45:00,49.1,33.0,29.70,NW,309,0.0,-999.0,54,-99.99,,,0.02,weatherlink.com 1.10,2013-02-28 01:45:00,
2013-02-27 21:00:00,48.9,33.0,29.70,NW,309,0.0,-999.0,55,-99.99,,,0.02,weatherlink.com 1.10,2013-02-28 02:00:00,
2013-02-27 21:15:00,48.8,33.0,29.70,NW,309,0.0,-999.0,55,-99.99,,,0.02,weatherlink.com 1.10,2013-02-28 02:15:00,
2013-02-27 21:30:00,48.5,33.0,29.69,NW,309,0.0,-999.0,55,-99.99,,,0.02,weatherlink.com 1.10,2013-02-28 02:30:00,
2013-02-27 21:45:00,48.0,33.0,29.68,NW,309,0.0,-999.0,56,-99.99,,,0.02,weatherlink.com 1.10,2013-02-28 02:45:00,
2013-02-27 22:00:00,47.0,34.0,29.68,NW,309,0.0,-999.0,60,-99.99,,,0.02,weatherlink.com 1.10,2013-02-28 03:00:00,
2013-02-27 22:15:00,45.4,34.0,29.68,NW,309,0.0,-999.0,64,-99.99,,,0.02,weatherlink.com 1.10,2013-02-28 03:15:00,
2013-02-27 22:30:00,44.2,34.0,29.67,NW,309,0.0,-999.0,68,-99.99,,,0.02,weatherlink.com 1.10,2013-02-28 03:30:00,
2013-02-27 22:45:00,43.6,34.0,29.68,NW,309,0.0,-999.0,69,-99.99,,,0.02,weatherlink.com 1.10,2013-02-28 03:45:00,
2013-02-27 23:00:00,43.1,34.0,29.67,NW,309,0.0,-999.0,70,-99.99,,,0.02,weatherlink.com 1.10,2013-02-28 04:00:00,
2013-02-27 23:20:00,42.2,34.0,29.66,NW,309,0.0,-999.0,73,-99.99,,,0.02,weatherlink.com 1.10,2013-02-28 04:20:00,
2013-02-27 23:30:00,41.8,34.0,29.66,NW,309,0.0,-999.0,75,-99.99,,,0.02,weatherlink.com 1.10,2013-02-28 04:30:00,
2013-02-27 23:45:00,41.5,34.0,29.65,NW,309,0.0,-999.0,75,-99.99,,,0.02,weatherlink.com 1.10,2013-02-28 04:45:00,